Home > Weather > Cornwall > Past weeks

Flag for Canada Past Weather in Cornwall, Ontario, Canada — Yesterday and Last 2 Weeks

Now
67 °F

Mild.


Feels Like: 67 °F
Forecast: 54 / 85 °F
Wind: No wind

Location: St Anicet

Current Time: Jun 24, 2016 at 9:41:55 PM

Latest Report: Jun 24, 2016 at 9:00 PM


Visibility: N/A

Pressure: 30.06 "Hg

Humidity: 66%

Dew Point: 55 °F

Location of CornwallLocation

Past Weather in Cornwall — Graph

°F

Cornwall Temperature Yesterday

Maximum temperature yesterday: 77 °F (at 4:00 PM)
Minimum temperature yesterday: 54 °F (at 6:00 AM)
Average temperature yesterday: 65 °F

High & Low Weather Summary for the Past Weeks

 TemperatureHumidityPressure
High92 °F (Jun 20, 5:00 PM)100% (Jun 16, 5:00 AM)30.20 "Hg (Jun 16, 5:00 AM)
Low47 °F (Jun 17, 5:00 AM)17% (Jun 18, 4:00 PM)29.45 "Hg (Jun 12, 1:00 AM)
Average66 °F60%29.89 "Hg
* Reported Jun 9 8:00 PM — Jun 24 8:00 PM, Cornwall, Weather by CustomWeather, © 2016

Note: Actual official high and low records may vary slightly from our data, if they occured in-between our weather recording intervals... More about our weather records

Advertising

Cornwall Weather History for the Previous 24 Hours

Scroll right to see more
 ConditionsComfort  
Time TempWeatherWind HumidityBarometerVisibility
8:00 PM
Fri, Jun 24
76 °FMild.2 mph43%30.06 "HgN/A
7:00 PM78 °FPleasantly warm.5 mph36%30.06 "HgN/A
6:00 PM80 °FPleasantly warm.5 mph29%30.06 "HgN/A
5:00 PM80 °FPleasantly warm.5 mph32%30.06 "HgN/A
4:00 PM80 °FPleasantly warm.5 mph29%30.07 "HgN/A
3:00 PM79 °FPleasantly warm.5 mph35%30.07 "HgN/A
2:00 PM77 °FPleasantly warm.6 mph36%30.08 "HgN/A
1:00 PM76 °FMild.6 mph36%30.08 "HgN/A
12:00 PM75 °FMild.3 mph35%30.09 "HgN/A
11:00 AM73 °FMild.2 mph49%30.09 "HgN/A
10:00 AM70 °FMild.2 mph57%30.09 "HgN/A
9:00 AM67 °FMild.1 mph64%30.09 "HgN/A
8:00 AM63 °FMild.1 mph75%30.07 "HgN/A
7:00 AM55 °FCool.2 mph79%30.05 "HgN/A
6:00 AM48 °FCool.No wind97%30.03 "HgN/A
5:00 AM47 °FCool.No wind97%30.00 "HgN/A
4:00 AM48 °FCool.1 mph96%29.98 "HgN/A
3:00 AM50 °FCool.No wind93%29.97 "HgN/A
2:00 AM52 °FCool.1 mph92%29.96 "HgN/A
1:00 AM51 °FCool.1 mph92%29.96 "HgN/A
12:00 AM52 °FCool.No wind89%29.94 "HgN/A
11:00 PM
Thu, Jun 23
55 °FCool.No wind81%29.93 "HgN/A
10:00 PM57 °FCool.No wind77%29.91 "HgN/A
9:00 PM63 °FMild.No wind61%29.88 "HgN/A
Weather by CustomWeather, © 2016

See weather overviewHow to use our weather pages